Location: Malvern Link
(52.1333°N, 2.3000°W)
Time: 16:57:57
(UTC+00:00)

SPROUT - Pass Details

Date: 03 July 2022
Orbit: 588 x 598 km, 97.9° (Epoch: 09 August)

Event Time Altitude Azimuth Distance (km) Brightness Sun altitude
Exits shadow 00:40:25 22° 159° (SSE) 1,306 ? -14.7°
Maximum altitude 00:43:03 81° 74° (ENE) 604 ? -14.6°
Drops below altitude 10° 00:47:15 10° 347° (NNW) 1,931 ? -14.5°
Sets 00:49:25 0° 347° (NNW) 2,839 ? -14.5°
